Showing default

ZACUBE, 39417

Orbit data source: Space-Track

ZACUBE, 39417 is a payload satellite owned by CPUT (ZA) in SSO that was launched on Thu, 21 Nov 2013 UTC via a DNEPR launch vehicle from the Orenburg, Russia (OREN). Payload-class satellites include a variety of spacecraft equipped with specific instruments for various scientific and technological missions. These include communications satellites like Starlink; space stations such as the ISS; scientific satellites like the Hubble; Earth observation satellites from companies like Planet Labs, Umbra, and HawkEye 360; GPS; miniature CubeSats for education and research; and military/defense satellites.

Loading next visibility...
Identifier
39417, 2013-066B
Orbit
SSO
Country
Flag of UnknownUnknown / SAFR
Related business
Manufacturer
CPUT
Mission
Operational Amateur Technology
Bus & Motor
CUBESAT 1U, Unknown motor
Mass
1.2 kg wet, 1.2 kg dry
Launch date (UTC)
2013-11-21 (12 years ago)
Launch vehicle
DNEPR
Launch site
Orenburg, Russia (OREN)
Object type
Payload
Rocket body
Debris
Shape & HBR
Box, 0.1 m
Radar Cross Section
0.015 m², Small (<0.1 m²)

Expand to show TLE details & history
Last TLE update: 8 hours ago

TLE from 8 hours ago
0 ZACUBE
1 39417U 13066B   26037.84709542  .00009144  00000-0  72817-3 0  9993
2 39417  97.8176 359.5257 0040881 326.5593  33.3049 14.99939853661188
Epoch: 2026-02-06T20:19Z
TLE epoch observation values (Epoch: 2026-02-06T20:19:49.044Z)
Latitude
-0.00003°
Longitude
-82.40775°
Altitude
546.434 km
Speed
7.602 km/s
True Right ascension
23h 58m 06s
True Declination
0° 00' 00"
Sunlit
Object was in daylight at epoch
Visualization orbit readout
Latitude
Unknown
Longitude
Unknown
Altitude
Unknown
Speed
Unknown
Apparent Right ascension
Unknown
Apparent Declination
Unknown
Sunlit
N/A
Visualization observer readout
Local Sidereal Time
06:14:44
Azimuth
Unknown
Elevation
Unknown
Doppler factor
Unknown
Orbital elements
Apogee altitude
592.473 km
Perigee altitude
535.712 km
Semi-major axis
6,942.23 km
Eccentricity
0.00409
Inclination
97.8176°
RAAN
359.5257°
Arg. of periapsis
326.5593°
True anomaly
33.56323°
Mean anomaly
33.3049°
Eccentric anomaly
33.43396°
Mean motion
3.75228 °/min
Orbital period
95.94 mins
BSTAR
0.00072817
Loading maneuver chart data...
Computing Atmospheric mass density...
Loading historical data...
Loading historical data...
Loading historical data...
Loading historical data...
Loading historical data...
Loading historical data...
Loading historical data...

Documentation

Showing up to 5 results
|